This is the latest recevied weather packets stored in our database for station/object KE0TNI-13. If no packets are shown the sender has not sent any weather packets the latest 10 day(s).
| Time | Temp. | Humidity | Pressure | Rain* | Wind** | Luminosity | Snow |
|---|---|---|---|---|---|---|---|
| 1777987125 | -1.11° C | 98% | 1014.9 hPa | 0 mm | - | 23 W/m² | - |
| 1777986823 | -1.11° C | 98% | 1014.9 hPa | 0 mm | - | 19 W/m² | - |
| 1777986521 | -1.11° C | 98% | 1015 hPa | 0 mm | - | 21 W/m² | - |
| 1777986218 | -1.11° C | 98% | 1014.7 hPa | 0 mm | - | 17 W/m² | - |
| 1777985915 | -1.11° C | 98% | 1014.7 hPa | 0 mm | - | 11 W/m² | - |
| 1777985613 | -1.11° C | 98% | 1015 hPa | 0 mm | - | 10 W/m² | - |
| 1777985309 | -1.11° C | 98% | 1014.9 hPa | 0 mm | - | 9 W/m² | - |
| 1777985006 | -1.11° C | 98% | 1014.8 hPa | 0 mm | - | 7 W/m² | - |
| 1777984702 | -1.11° C | 98% | 1014.8 hPa | 0 mm | - | 6 W/m² | - |
| 1777984399 | -1.11° C | 98% | 1014.8 hPa | 0 mm | - | 6 W/m² | - |
| 1777984095 | -0.56° C | 98% | 1014.8 hPa | 0 mm | - | 7 W/m² | - |
| 1777983792 | -0.56° C | 98% | 1014.5 hPa | 0 mm | - | 5 W/m² | - |
| 1777983489 | -0.56° C | 98% | 1014.7 hPa | 0 mm | - | 3 W/m² | - |
| 1777983186 | -0.56° C | 98% | 1014.5 hPa | 0.51 mm | - | 2 W/m² | - |
| 1777982882 | -0.56° C | 98% | 1015 hPa | 0.51 mm | - | 2 W/m² | - |
| 1777982578 | -0.56° C | 98% | 1014.8 hPa | 0 mm | - | 1 W/m² | - |
| 1777982277 | 0° C | 98% | 1014.7 hPa | 0.51 mm | - | 0 W/m² | - |
| 1777981974 | 0° C | 98% | 1014.8 hPa | 0 mm | - | 0 W/m² | - |
| 1777981672 | 0° C | 98% | 1014.4 hPa | 0 mm | - | 0 W/m² | - |
| 1777981368 | 0° C | 98% | 1014.4 hPa | 0 mm | - | 0 W/m² | - |
| 1777981065 | 0.56° C | 98% | 1014.7 hPa | 0 mm | - | 0 W/m² | - |
| 1777980761 | 0.56° C | 98% | 1014.4 hPa | 0 mm | - | 0 W/m² | - |
| 1777980457 | 1.11° C | 98% | 1014.4 hPa | 0.51 mm | - | 0 W/m² | - |
| 1777980155 | 1.11° C | 98% | 1014.4 hPa | 0 mm | - | 0 W/m² | - |
| 1777979855 | 1.67° C | 98% | 1014.3 hPa | 0 mm | - | 0 W/m² | - |
* Rain latest hour (hover to see other rain measurements)
** Current wind speed in m/s (hover to see current wind gust speed)